Time,TemperatureF,DewpointF,PressureIn,WindDirection,WindDirectionDegrees,WindSpeedMPH,WindSpeedGustMPH,Humidity,HourlyPrecipIn,Conditions,Clouds,dailyrainin,SolarRadiationWatts/m^2,SoftwareType,DateUTC
2013-05-11 00:00:00,73.3,71.5,29.87,NNE,33,10.2,12.2,94,0.00,,---,0.06,0.00,VWS V14.01,2013-05-11 05:00:00,
2013-05-11 00:01:00,73.3,71.5,29.87,NNE,33,10.2,12.2,94,0.00,,---,0.06,,VWS V14.01,2013-05-11 05:01:00,
2013-05-11 00:05:00,73.3,71.5,29.87,NNE,17,5.2,12.2,94,0.00,,---,0.00,0.00,VWS V14.01,2013-05-11 05:05:00,
2013-05-11 00:06:00,73.3,71.5,29.87,NNE,17,5.2,12.2,94,0.00,,---,0.00,,VWS V14.01,2013-05-11 05:06:00,
2013-05-11 00:10:00,73.5,71.4,29.87,NNE,28,8.2,13.2,93,0.00,,---,0.00,0.00,VWS V14.01,2013-05-11 05:10:00,
2013-05-11 00:11:00,73.5,71.4,29.87,NNE,28,8.2,13.2,93,0.00,,---,0.00,,VWS V14.01,2013-05-11 05:11:00,
2013-05-11 00:15:00,73.5,71.4,29.87,NE,39,4.2,12.2,93,0.00,,---,0.00,0.00,VWS V14.01,2013-05-11 05:15:00,
2013-05-11 00:16:00,73.5,71.4,29.87,NE,39,4.2,12.2,93,0.00,,---,0.00,,VWS V14.01,2013-05-11 05:16:00,
2013-05-11 00:20:00,73.7,71.6,29.87,North,360,10.2,10.2,93,0.00,,---,0.00,0.00,VWS V14.01,2013-05-11 05:20:00,
2013-05-11 00:21:00,73.7,71.6,29.87,North,360,10.2,10.2,93,0.00,,---,0.00,,VWS V14.01,2013-05-11 05:21:00,
2013-05-11 00:25:00,73.7,71.6,29.87,NE,36,6.2,12.2,93,0.00,,---,0.00,0.00,VWS V14.01,2013-05-11 05:25:00,
2013-05-11 00:26:00,73.7,71.6,29.87,NE,36,6.2,12.2,93,0.00,,---,0.00,,VWS V14.01,2013-05-11 05:26:00,
2013-05-11 00:30:00,73.9,71.8,29.87,NE,36,4.2,17.2,93,0.00,,---,0.00,0.00,VWS V14.01,2013-05-11 05:30:00,
2013-05-11 00:31:00,73.7,71.6,29.87,NE,36,5.2,17.2,93,0.00,,---,0.00,,VWS V14.01,2013-05-11 05:31:00,
2013-05-11 00:35:00,73.9,71.8,29.87,NNE,24,12.2,13.2,93,0.00,,---,0.00,0.00,VWS V14.01,2013-05-11 05:35:00,
2013-05-11 00:36:00,73.9,71.8,29.87,NNE,20,6.2,13.2,93,0.00,,---,0.00,,VWS V14.01,2013-05-11 05:36:00,
2013-05-11 00:40:00,73.9,71.8,29.87,NNE,30,9.2,13.2,93,0.00,,---,0.00,0.00,VWS V14.01,2013-05-11 05:40:00,
2013-05-11 00:41:00,73.9,71.8,29.87,NNE,31,8.2,13.2,93,0.00,,---,0.00,,VWS V14.01,2013-05-11 05:41:00,
2013-05-11 00:45:00,73.9,71.8,29.87,NE,43,8.2,14.2,93,0.00,,---,0.00,0.00,VWS V14.01,2013-05-11 05:45:00,
2013-05-11 00:46:00,73.9,71.8,29.87,NNE,33,8.2,14.2,93,0.00,,---,0.00,,VWS V14.01,2013-05-11 05:46:00,
2013-05-11 00:50:00,73.9,71.8,29.87,NE,44,4.2,10.2,93,0.00,,---,0.00,0.00,VWS V14.01,2013-05-11 05:50:00,
2013-05-11 00:51:00,73.9,71.8,29.87,NE,44,4.2,10.2,93,0.00,,---,0.00,,VWS V14.01,2013-05-11 05:51:00,
2013-05-11 00:55:00,73.7,71.6,29.87,NE,37,3.2,10.2,93,0.00,,---,0.00,0.00,VWS V14.01,2013-05-11 05:55:00,
2013-05-11 00:56:00,73.7,71.6,29.87,NE,37,3.2,10.2,93,0.00,,---,0.00,,VWS V14.01,2013-05-11 05:56:00,
2013-05-11 01:00:00,73.7,71.6,29.87,ENE,61,5.2,12.2,93,0.00,,---,0.00,0.00,VWS V14.01,2013-05-11 06:00:00,
2013-05-11 01:01:00,73.7,71.6,29.87,ENE,61,6.2,12.2,93,0.00,,---,0.00,,VWS V14.01,2013-05-11 06:01:00,
2013-05-11 01:05:00,73.7,71.6,29.87,NNE,30,5.2,10.2,93,0.00,,---,0.00,0.00,VWS V14.01,2013-05-11 06:05:00,
2013-05-11 01:06:00,73.7,71.6,29.87,NNE,30,6.2,10.2,93,0.00,,---,0.00,,VWS V14.01,2013-05-11 06:06:00,
2013-05-11 01:10:00,73.7,71.6,29.87,NNE,14,5.2,11.2,93,0.00,,---,0.00,0.00,VWS V14.01,2013-05-11 06:10:00,
2013-05-11 01:11:00,73.7,71.6,29.87,NNE,13,7.2,11.2,93,0.00,,---,0.00,,VWS V14.01,2013-05-11 06:11:00,
2013-05-11 01:15:00,73.5,71.4,29.87,NNE,24,7.2,13.2,93,0.00,,---,0.00,0.00,VWS V14.01,2013-05-11 06:15:00,
2013-05-11 01:16:00,73.5,71.4,29.87,ENE,57,10.2,13.2,93,0.00,,---,0.00,,VWS V14.01,2013-05-11 06:16:00,
2013-05-11 01:20:00,73.5,71.4,29.87,NNE,22,6.2,13.2,93,0.00,,---,0.00,0.00,VWS V14.01,2013-05-11 06:20:00,
2013-05-11 01:21:00,73.5,71.4,29.87,NNE,24,11.2,13.2,93,0.00,,---,0.00,,VWS V14.01,2013-05-11 06:21:00,
2013-05-11 01:25:00,73.5,71.4,29.87,NNE,13,7.2,11.2,93,0.00,,---,0.00,0.00,VWS V14.01,2013-05-11 06:25:00,
2013-05-11 01:26:00,73.5,71.4,29.87,NNE,17,6.2,11.2,93,0.00,,---,0.00,,VWS V14.01,2013-05-11 06:26:00,
2013-05-11 01:30:00,73.3,71.2,29.89,NNE,23,6.2,10.2,93,0.00,,---,0.00,0.00,VWS V14.01,2013-05-11 06:30:00,
2013-05-11 01:31:00,73.3,71.2,29.89,NE,36,8.2,10.2,93,0.00,,---,0.00,,VWS V14.01,2013-05-11 06:31:00,
2013-05-11 01:35:00,73.3,71.2,29.89,NE,35,10.2,13.2,93,0.00,,---,0.00,0.00,VWS V14.01,2013-05-11 06:35:00,
2013-05-11 01:36:00,73.3,71.2,29.89,NE,42,13.2,13.2,93,0.00,,---,0.00,,VWS V14.01,2013-05-11 06:36:00,
2013-05-11 01:40:00,73.2,71.1,29.89,NNE,14,5.2,13.2,93,0.00,,---,0.00,0.00,VWS V14.01,2013-05-11 06:40:00,
2013-05-11 01:41:00,73.2,71.1,29.89,ENE,61,5.2,13.2,93,0.00,,---,0.00,,VWS V14.01,2013-05-11 06:41:00,
2013-05-11 01:45:00,73.0,70.9,29.88,North,11,8.2,15.2,93,0.00,,---,0.00,0.00,VWS V14.01,2013-05-11 06:45:00,
2013-05-11 01:46:00,73.0,70.9,29.88,NNE,13,6.2,15.2,93,0.00,,---,0.00,,VWS V14.01,2013-05-11 06:46:00,
2013-05-11 01:50:00,72.8,70.7,29.88,NE,43,10.2,15.2,93,0.00,,---,0.00,0.00,VWS V14.01,2013-05-11 06:50:00,
2013-05-11 01:51:00,72.8,70.7,29.88,NE,39,7.2,15.2,93,0.00,,---,0.00,,VWS V14.01,2013-05-11 06:51:00,
2013-05-11 01:55:00,72.7,70.6,29.88,NNE,23,7.2,12.2,93,0.00,,---,0.00,0.00,VWS V14.01,2013-05-11 06:55:00,
2013-05-11 01:56:00,72.7,70.6,29.88,NNE,23,6.2,12.2,93,0.00,,---,0.00,,VWS V14.01,2013-05-11 06:56:00,
2013-05-11 02:00:00,72.5,70.4,29.90,ENE,63,7.2,11.2,93,0.01,,---,0.01,0.00,VWS V14.01,2013-05-11 07:00:00,
2013-05-11 02:01:00,72.5,70.4,29.90,ENE,70,5.2,11.2,93,0.01,,---,0.01,,VWS V14.01,2013-05-11 07:01:00,
2013-05-11 02:05:00,72.5,70.7,29.90,ENE,63,4.2,8.2,94,0.01,,---,0.01,0.00,VWS V14.01,2013-05-11 07:05:00,
2013-05-11 02:06:00,72.5,70.7,29.90,ENE,63,6.2,8.2,94,0.01,,---,0.01,,VWS V14.01,2013-05-11 07:06:00,
2013-05-11 02:10:00,72.5,70.7,29.90,NE,55,10.2,14.2,94,0.01,,---,0.01,0.00,VWS V14.01,2013-05-11 07:10:00,
2013-05-11 02:11:00,72.5,70.7,29.90,ENE,57,12.2,14.2,94,0.01,,---,0.01,,VWS V14.01,2013-05-11 07:11:00,
2013-05-11 02:15:00,72.3,70.5,29.89,NE,48,6.2,12.2,94,0.02,,---,0.02,0.00,VWS V14.01,2013-05-11 07:15:00,
2013-05-11 02:16:00,72.3,70.5,29.89,NE,49,5.2,12.2,94,0.02,,---,0.02,,VWS V14.01,2013-05-11 07:16:00,
2013-05-11 02:20:00,72.3,70.5,29.89,NNE,23,10.2,14.2,94,0.02,,---,0.02,0.00,VWS V14.01,2013-05-11 07:20:00,
2013-05-11 02:21:00,72.3,70.5,29.89,NNE,28,10.2,14.2,94,0.02,,---,0.02,,VWS V14.01,2013-05-11 07:21:00,
2013-05-11 02:25:00,72.3,70.8,29.89,NNE,13,11.2,14.2,95,0.02,,---,0.02,0.00,VWS V14.01,2013-05-11 07:25:00,
2013-05-11 02:26:00,72.3,70.8,29.89,NNE,28,8.2,13.2,95,0.02,,---,0.02,,VWS V14.01,2013-05-11 07:26:00,
2013-05-11 02:30:00,72.1,70.6,29.87,NNE,14,15.2,16.2,95,0.02,,---,0.02,0.00,VWS V14.01,2013-05-11 07:30:00,
2013-05-11 02:31:00,72.1,70.6,29.87,NNE,32,11.2,16.2,95,0.02,,---,0.02,,VWS V14.01,2013-05-11 07:31:00,
2013-05-11 02:35:00,72.1,70.6,29.87,NE,39,15.2,19.2,95,0.03,,---,0.03,0.00,VWS V14.01,2013-05-11 07:35:00,
2013-05-11 02:36:00,72.1,70.6,29.87,ENE,57,14.2,19.2,95,0.03,,---,0.03,,VWS V14.01,2013-05-11 07:36:00,
2013-05-11 02:40:00,72.0,70.5,29.87,NNE,13,10.2,16.2,95,0.03,,---,0.03,0.00,VWS V14.01,2013-05-11 07:40:00,
2013-05-11 02:41:00,72.0,70.5,29.87,NNW,331,14.2,16.2,95,0.03,,---,0.03,,VWS V14.01,2013-05-11 07:41:00,
2013-05-11 02:45:00,71.8,70.6,29.89,NW,324,1.2,13.2,96,0.03,,---,0.03,0.00,VWS V14.01,2013-05-11 07:45:00,
2013-05-11 02:46:00,71.8,70.6,29.89,NW,324,3.2,13.2,96,0.03,,---,0.03,,VWS V14.01,2013-05-11 07:46:00,
2013-05-11 02:50:00,71.6,70.4,29.89,NNE,30,5.2,10.2,96,0.04,,---,0.04,0.00,VWS V14.01,2013-05-11 07:50:00,
2013-05-11 02:51:00,71.6,70.4,29.89,NNE,30,3.2,10.2,96,0.04,,---,0.04,,VWS V14.01,2013-05-11 07:51:00,
2013-05-11 02:55:00,71.5,70.3,29.89,NNE,32,6.2,11.2,96,0.04,,---,0.04,0.00,VWS V14.01,2013-05-11 07:55:00,
2013-05-11 02:56:00,71.5,70.3,29.89,ENE,68,5.2,11.2,96,0.04,,---,0.04,,VWS V14.01,2013-05-11 07:56:00,
2013-05-11 03:00:00,71.3,70.1,29.91,NE,41,8.2,11.2,96,0.04,,---,0.04,0.00,VWS V14.01,2013-05-11 08:00:00,
2013-05-11 03:01:00,71.3,70.1,29.91,NE,42,7.2,11.2,96,0.04,,---,0.04,,VWS V14.01,2013-05-11 08:01:00,
2013-05-11 03:05:00,71.3,69.8,29.91,NNE,26,6.2,10.2,95,0.04,,---,0.05,0.00,VWS V14.01,2013-05-11 08:05:00,
2013-05-11 03:06:00,71.3,69.8,29.91,NE,45,5.2,10.2,95,0.04,,---,0.05,,VWS V14.01,2013-05-11 08:06:00,
2013-05-11 03:10:00,71.3,69.8,29.91,NE,42,1.2,8.2,95,0.04,,---,0.05,0.00,VWS V14.01,2013-05-11 08:10:00,
2013-05-11 03:11:00,71.3,69.8,29.91,NE,42,1.2,8.2,95,0.04,,---,0.05,,VWS V14.01,2013-05-11 08:11:00,
2013-05-11 03:15:00,71.1,69.6,29.94,NE,42,1.2,4.2,95,0.05,,---,0.06,0.00,VWS V14.01,2013-05-11 08:15:00,
2013-05-11 03:16:00,71.1,69.6,29.93,NE,42,1.2,4.2,95,0.05,,---,0.06,,VWS V14.01,2013-05-11 08:16:00,
2013-05-11 03:20:00,71.1,69.6,29.94,NE,42,2.2,3.2,95,0.04,,---,0.06,0.00,VWS V14.01,2013-05-11 08:20:00,
2013-05-11 03:21:00,71.1,69.6,29.93,NE,42,1.2,3.2,95,0.04,,---,0.06,,VWS V14.01,2013-05-11 08:21:00,
2013-05-11 03:25:00,71.1,69.9,29.94,NE,42,1.2,2.2,96,0.04,,---,0.06,0.00,VWS V14.01,2013-05-11 08:25:00,
2013-05-11 03:26:00,71.1,69.9,29.93,NE,42,1.2,2.2,96,0.04,,---,0.06,,VWS V14.01,2013-05-11 08:26:00,
2013-05-11 03:30:00,71.1,69.9,29.95,NE,42,3.2,4.2,96,0.05,,---,0.07,0.00,VWS V14.01,2013-05-11 08:30:00,
2013-05-11 03:31:00,71.1,69.9,29.95,NE,42,1.2,4.2,96,0.05,,---,0.07,,VWS V14.01,2013-05-11 08:31:00,
2013-05-11 03:35:00,71.1,69.9,29.95,NW,315,2.2,7.2,96,0.05,,---,0.07,0.00,VWS V14.01,2013-05-11 08:35:00,
2013-05-11 03:36:00,71.1,69.9,29.95,NW,316,6.2,7.2,96,0.05,,---,0.07,,VWS V14.01,2013-05-11 08:36:00,
2013-05-11 03:40:00,71.1,69.9,29.95,NW,317,2.2,6.2,96,0.05,,---,0.08,0.00,VWS V14.01,2013-05-11 08:40:00,
2013-05-11 03:41:00,71.1,69.9,29.95,NW,317,1.2,6.2,96,0.05,,---,0.08,,VWS V14.01,2013-05-11 08:41:00,
2013-05-11 03:45:00,71.1,69.9,29.97,NW,317,4.2,4.2,96,0.06,,---,0.09,0.00,VWS V14.01,2013-05-11 08:45:00,
2013-05-11 03:46:00,71.1,69.9,29.97,NW,317,1.2,4.2,96,0.06,,---,0.09,,VWS V14.01,2013-05-11 08:46:00,
2013-05-11 03:50:00,71.1,69.9,29.97,NW,311,6.2,6.2,96,0.06,,---,0.09,0.00,VWS V14.01,2013-05-11 08:50:00,
2013-05-11 03:51:00,71.1,69.9,29.97,NW,311,2.2,6.2,96,0.06,,---,0.09,,VWS V14.01,2013-05-11 08:51:00,
2013-05-11 03:55:00,71.1,69.9,29.97,NW,311,3.2,6.2,96,0.06,,---,0.10,,VWS V14.01,2013-05-11 08:55:00,
2013-05-11 04:00:00,71.1,69.9,29.96,NW,310,2.2,6.2,96,0.07,,---,0.11,,VWS V14.01,2013-05-11 09:00:00,
2013-05-11 04:05:00,70.9,70.0,29.96,NW,308,2.2,9.2,97,0.08,,---,0.12,,VWS V14.01,2013-05-11 09:05:00,
2013-05-11 04:10:00,70.8,69.9,29.96,NW,315,3.2,11.2,97,0.08,,---,0.13,,VWS V14.01,2013-05-11 09:10:00,
2013-05-11 04:15:00,70.6,69.7,29.95,NW,309,9.2,10.2,97,0.09,,---,0.14,,VWS V14.01,2013-05-11 09:15:00,
2013-05-11 04:20:00,70.4,69.5,29.95,NW,325,3.2,14.2,97,0.09,,---,0.15,,VWS V14.01,2013-05-11 09:20:00,
2013-05-11 04:25:00,70.4,69.5,29.95,North,355,11.2,13.2,97,0.09,,---,0.15,,VWS V14.01,2013-05-11 09:25:00,
2013-05-11 04:30:00,70.4,69.5,29.93,NNW,333,4.2,13.2,97,0.10,,---,0.16,,VWS V14.01,2013-05-11 09:30:00,
2013-05-11 04:35:00,70.4,69.5,29.93,NNW,329,6.2,11.2,97,0.09,,---,0.16,,VWS V14.01,2013-05-11 09:35:00,
2013-05-11 04:40:00,70.4,69.5,29.93,North,355,3.2,11.2,97,0.10,,---,0.17,,VWS V14.01,2013-05-11 09:40:00,
2013-05-11 04:45:00,70.4,69.8,29.93,North,350,4.2,11.2,98,0.09,,---,0.17,,VWS V14.01,2013-05-11 09:45:00,
2013-05-11 04:50:00,70.6,70.0,29.93,North,5,3.2,8.2,98,0.09,,---,0.18,,VWS V14.01,2013-05-11 09:50:00,
2013-05-11 04:55:00,70.6,70.0,29.93,North,5,5.2,10.2,98,0.09,,---,0.18,,VWS V14.01,2013-05-11 09:55:00,
2013-05-11 05:00:00,70.6,70.0,29.89,North,5,7.2,12.2,98,0.08,,---,0.18,,VWS V14.01,2013-05-11 10:00:00,
2013-05-11 05:05:00,70.6,70.0,29.89,North,10,4.2,12.2,98,0.08,,---,0.19,,VWS V14.01,2013-05-11 10:05:00,
2013-05-11 05:10:00,70.8,70.2,29.89,NNE,30,10.2,17.2,98,0.08,,---,0.20,,VWS V14.01,2013-05-11 10:10:00,
2013-05-11 05:15:00,70.8,70.2,29.89,North,360,8.2,16.2,98,0.07,,---,0.20,,VWS V14.01,2013-05-11 10:15:00,
2013-05-11 05:20:00,70.8,70.2,29.89,North,355,4.2,15.2,98,0.06,,---,0.20,,VWS V14.01,2013-05-11 10:20:00,
2013-05-11 05:25:00,70.6,70.0,29.89,NNE,22,8.2,16.2,98,0.05,,---,0.20,,VWS V14.01,2013-05-11 10:25:00,
2013-05-11 05:30:00,70.6,70.0,29.89,North,350,5.2,12.2,98,0.05,,---,0.20,,VWS V14.01,2013-05-11 10:30:00,
2013-05-11 05:35:00,70.4,69.8,29.89,NNE,32,4.2,12.2,98,0.04,,---,0.20,,VWS V14.01,2013-05-11 10:35:00,
2013-05-11 05:40:00,70.1,69.5,29.89,North,5,8.2,14.2,98,0.05,,---,0.21,,VWS V14.01,2013-05-11 10:40:00,
2013-05-11 05:45:00,70.1,69.5,29.86,NNE,15,13.2,16.2,98,0.04,,---,0.21,,VWS V14.01,2013-05-11 10:45:00,
2013-05-11 05:50:00,70.1,69.5,29.86,NNE,29,12.2,13.2,98,0.04,,---,0.21,,VWS V14.01,2013-05-11 10:50:00,
2013-05-11 05:55:00,70.1,69.8,29.86,NNE,30,10.2,12.2,99,0.03,,---,0.21,,VWS V14.01,2013-05-11 10:55:00,
2013-05-11 06:00:00,70.1,69.5,29.86,North,351,5.2,14.2,98,0.03,,---,0.21,,VWS V14.01,2013-05-11 11:00:00,
2013-05-11 06:05:00,70.3,69.7,29.86,NE,42,11.2,13.2,98,0.03,,---,0.21,,VWS V14.01,2013-05-11 11:05:00,
2013-05-11 06:10:00,70.3,69.7,29.86,ENE,66,7.2,13.2,98,0.02,,---,0.21,,VWS V14.01,2013-05-11 11:10:00,
2013-05-11 06:15:00,70.1,69.5,29.87,NE,56,5.2,11.2,98,0.01,,---,0.21,,VWS V14.01,2013-05-11 11:15:00,
2013-05-11 06:20:00,69.9,69.3,29.87,NNE,17,10.2,12.2,98,0.01,,---,0.21,,VWS V14.01,2013-05-11 11:20:00,
2013-05-11 06:25:00,69.9,69.3,29.87,North,5,3.2,11.2,98,0.01,,---,0.21,,VWS V14.01,2013-05-11 11:25:00,
2013-05-11 06:30:00,69.9,69.3,29.88,North,5,4.2,6.2,98,0.01,,---,0.21,,VWS V14.01,2013-05-11 11:30:00,
2013-05-11 06:35:00,69.9,69.3,29.88,NNE,15,5.2,11.2,98,0.01,,---,0.21,,VWS V14.01,2013-05-11 11:35:00,
2013-05-11 06:40:00,69.9,69.3,29.88,NE,41,6.2,8.2,98,0.01,,---,0.21,,VWS V14.01,2013-05-11 11:40:00,
2013-05-11 06:45:00,70.1,69.5,29.88,NE,51,6.2,10.2,98,0.00,,---,0.21,,VWS V14.01,2013-05-11 11:45:00,
2013-05-11 06:50:00,70.3,69.7,29.88,NE,42,4.2,8.2,98,0.00,,---,0.21,,VWS V14.01,2013-05-11 11:50:00,
2013-05-11 06:55:00,70.4,69.8,29.88,ENE,57,5.2,9.2,98,0.00,,---,0.21,,VWS V14.01,2013-05-11 11:55:00,
2013-05-11 07:00:00,70.4,69.8,29.89,NNE,28,4.2,8.2,98,0.00,,---,0.21,,VWS V14.01,2013-05-11 12:00:00,
2013-05-11 07:05:00,70.6,70.0,29.89,NE,51,4.2,11.2,98,0.00,,---,0.21,,VWS V14.01,2013-05-11 12:05:00,
2013-05-11 07:10:00,70.4,69.8,29.89,NE,43,3.2,11.2,98,0.00,,---,0.21,,VWS V14.01,2013-05-11 12:10:00,
2013-05-11 07:15:00,70.4,69.8,29.89,NNE,30,5.2,8.2,98,0.00,,---,0.21,,VWS V14.01,2013-05-11 12:15:00,
2013-05-11 07:20:00,70.6,70.0,29.89,NE,42,5.2,17.2,98,0.00,,---,0.21,,VWS V14.01,2013-05-11 12:20:00,
2013-05-11 07:25:00,70.6,69.7,29.89,NE,40,11.2,14.2,97,0.00,,---,0.21,,VWS V14.01,2013-05-11 12:25:00,
2013-05-11 07:30:00,70.4,69.5,29.89,North,11,7.2,14.2,97,0.00,,---,0.21,,VWS V14.01,2013-05-11 12:30:00,
2013-05-11 07:35:00,70.4,69.5,29.89,NNE,25,4.2,12.2,97,0.00,,---,0.21,,VWS V14.01,2013-05-11 12:35:00,
2013-05-11 07:40:00,70.3,69.1,29.89,NE,44,7.2,12.2,96,0.00,,---,0.21,,VWS V14.01,2013-05-11 12:40:00,
2013-05-11 07:45:00,70.1,68.9,29.90,NE,43,5.2,8.2,96,0.00,,---,0.21,,VWS V14.01,2013-05-11 12:45:00,
2013-05-11 07:50:00,70.1,68.6,29.90,NE,49,11.2,12.2,95,0.00,,---,0.21,,VWS V14.01,2013-05-11 12:50:00,
2013-05-11 07:55:00,70.6,69.1,29.90,NE,36,4.2,10.2,95,0.00,,---,0.21,,VWS V14.01,2013-05-11 12:55:00,
2013-05-11 08:00:00,71.1,69.3,29.93,ENE,74,6.2,11.2,94,0.00,,---,0.21,,VWS V14.01,2013-05-11 13:00:00,
2013-05-11 08:05:00,71.5,69.7,29.93,ENE,72,4.2,11.2,94,0.00,,---,0.21,,VWS V14.01,2013-05-11 13:05:00,
2013-05-11 08:10:00,71.5,69.7,29.93,NNE,30,7.2,10.2,94,0.00,,---,0.21,,VWS V14.01,2013-05-11 13:10:00,
2013-05-11 08:15:00,71.5,69.7,29.93,ENE,67,11.2,13.2,94,0.00,,---,0.21,,VWS V14.01,2013-05-11 13:15:00,
2013-05-11 08:20:00,71.6,69.8,29.93,ENE,72,9.2,14.2,94,0.00,,---,0.21,,VWS V14.01,2013-05-11 13:20:00,
2013-05-11 08:25:00,71.8,69.7,29.93,NE,49,5.2,14.2,93,0.00,,---,0.21,,VWS V14.01,2013-05-11 13:25:00,
2013-05-11 08:30:00,71.8,69.3,29.93,ENE,63,6.2,12.2,92,0.00,,---,0.21,,VWS V14.01,2013-05-11 13:30:00,
2013-05-11 08:35:00,71.8,69.3,29.93,NE,55,12.2,12.2,92,0.00,,---,0.21,,VWS V14.01,2013-05-11 13:35:00,
2013-05-11 08:40:00,71.8,69.0,29.93,NE,46,6.2,10.2,91,0.00,,---,0.21,,VWS V14.01,2013-05-11 13:40:00,
2013-05-11 08:45:00,72.0,68.9,29.94,ENE,62,3.2,12.2,90,0.00,,---,0.21,,VWS V14.01,2013-05-11 13:45:00,
2013-05-11 08:50:00,72.7,69.3,29.94,NE,55,4.2,12.2,89,0.00,,---,0.21,,VWS V14.01,2013-05-11 13:50:00,
2013-05-11 08:55:00,73.0,69.2,29.94,North,5,6.2,12.2,88,0.00,,---,0.21,,VWS V14.01,2013-05-11 13:55:00,
2013-05-11 09:00:00,73.5,69.4,29.94,North,360,7.2,8.2,87,0.00,,---,0.21,,VWS V14.01,2013-05-11 14:00:00,
2013-05-11 09:05:00,73.9,69.4,29.94,North,355,11.2,12.2,86,0.00,,---,0.21,,VWS V14.01,2013-05-11 14:05:00,
2013-05-11 09:10:00,74.0,69.2,29.94,NE,34,5.2,13.2,85,0.00,,---,0.21,,VWS V14.01,2013-05-11 14:10:00,
2013-05-11 09:15:00,74.2,69.4,29.93,NNE,16,10.2,15.2,85,0.00,,---,0.21,,VWS V14.01,2013-05-11 14:15:00,
2013-05-11 09:20:00,74.2,69.1,29.93,North,10,6.2,16.2,84,0.00,,---,0.21,,VWS V14.01,2013-05-11 14:20:00,
2013-05-11 09:25:00,74.6,69.4,29.93,North,5,8.2,15.2,84,0.00,,---,0.21,,VWS V14.01,2013-05-11 14:25:00,
2013-05-11 09:30:00,74.4,69.3,29.92,North,355,12.2,14.2,84,0.00,,---,0.21,,VWS V14.01,2013-05-11 14:30:00,
2013-05-11 09:35:00,74.4,69.3,29.92,North,349,10.2,17.2,84,0.00,,---,0.21,,VWS V14.01,2013-05-11 14:35:00,
2013-05-11 09:40:00,74.2,69.8,29.92,North,5,7.2,11.2,86,0.00,,---,0.21,,VWS V14.01,2013-05-11 14:40:00,
2013-05-11 09:45:00,74.0,69.6,29.93,North,5,8.2,15.2,86,0.00,,---,0.21,,VWS V14.01,2013-05-11 14:45:00,
2013-05-11 09:50:00,74.2,69.4,29.93,NNE,29,7.2,16.2,85,0.00,,---,0.21,,VWS V14.01,2013-05-11 14:50:00,
2013-05-11 09:55:00,74.4,69.9,29.93,NW,318,7.2,17.2,86,0.00,,---,0.21,,VWS V14.01,2013-05-11 14:55:00,
2013-05-11 10:00:00,73.7,68.9,29.95,North,355,7.2,17.2,85,0.00,,---,0.21,,VWS V14.01,2013-05-11 15:00:00,
2013-05-11 10:05:00,73.5,68.7,29.95,NE,35,7.2,16.2,85,0.00,,---,0.21,,VWS V14.01,2013-05-11 15:05:00,
2013-05-11 10:10:00,73.5,68.7,29.95,North,5,4.2,17.2,85,0.00,,---,0.21,,VWS V14.01,2013-05-11 15:10:00,
2013-05-11 10:15:00,73.5,68.4,29.96,NNE,21,12.2,15.2,84,0.00,,---,0.21,,VWS V14.01,2013-05-11 15:15:00,
2013-05-11 10:20:00,73.3,68.2,29.96,North,360,8.2,14.2,84,0.00,,---,0.21,,VWS V14.01,2013-05-11 15:20:00,
2013-05-11 10:25:00,73.9,68.8,29.96,NNE,24,6.2,17.2,84,0.00,,---,0.21,,VWS V14.01,2013-05-11 15:25:00,
2013-05-11 10:30:00,74.2,68.4,29.96,NNW,346,6.2,12.2,82,0.00,,---,0.21,,VWS V14.01,2013-05-11 15:30:00,
2013-05-11 10:35:00,74.4,68.6,29.96,North,360,4.2,14.2,82,0.00,,---,0.21,,VWS V14.01,2013-05-11 15:35:00,
2013-05-11 10:40:00,74.9,68.7,29.96,North,9,7.2,15.2,81,0.00,,---,0.21,,VWS V14.01,2013-05-11 15:40:00,
2013-05-11 10:45:00,75.3,68.7,29.96,NNE,17,5.2,15.2,80,0.00,,---,0.21,,VWS V14.01,2013-05-11 15:45:00,
2013-05-11 10:50:00,75.6,69.0,29.96,North,355,8.2,14.2,80,0.00,,---,0.21,,VWS V14.01,2013-05-11 15:50:00,
2013-05-11 10:55:00,75.6,68.6,29.96,NE,55,11.2,16.2,79,0.00,,---,0.21,,VWS V14.01,2013-05-11 15:55:00,
2013-05-11 11:00:00,75.8,68.1,29.96,NNE,15,12.2,15.2,77,0.00,,---,0.21,,VWS V14.01,2013-05-11 16:00:00,
2013-05-11 11:05:00,76.0,67.9,29.96,NE,50,8.2,17.2,76,0.00,,---,0.21,,VWS V14.01,2013-05-11 16:05:00,
2013-05-11 11:10:00,76.1,67.6,29.96,NE,51,8.2,17.2,75,0.00,,---,0.21,,VWS V14.01,2013-05-11 16:10:00,
2013-05-11 11:15:00,76.7,67.4,29.96,NNE,22,12.2,15.2,73,0.00,,---,0.21,,VWS V14.01,2013-05-11 16:15:00,
2013-05-11 11:20:00,76.7,67.4,29.96,NNE,22,10.2,16.2,73,0.00,,---,0.21,,VWS V14.01,2013-05-11 16:20:00,
2013-05-11 11:25:00,76.8,67.1,29.96,North,360,11.2,17.2,72,0.00,,---,0.21,,VWS V14.01,2013-05-11 16:25:00,
2013-05-11 11:30:00,76.7,67.0,29.96,ENE,61,13.2,14.2,72,0.00,,---,0.21,,VWS V14.01,2013-05-11 16:30:00,
2013-05-11 11:35:00,77.2,67.1,29.96,NNE,27,7.2,15.2,71,0.00,,---,0.21,,VWS V14.01,2013-05-11 16:35:00,
2013-05-11 11:40:00,77.6,67.1,29.96,NE,52,7.2,14.2,70,0.00,,---,0.21,,VWS V14.01,2013-05-11 16:40:00,
2013-05-11 11:45:00,78.1,67.5,29.96,NE,40,11.2,14.2,70,0.00,,---,0.21,,VWS V14.01,2013-05-11 16:45:00,
2013-05-11 11:50:00,78.3,67.7,29.96,NE,39,5.2,13.2,70,0.00,,---,0.21,,VWS V14.01,2013-05-11 16:50:00,
2013-05-11 11:55:00,78.5,66.6,29.96,NE,42,8.2,15.2,67,0.00,,---,0.21,,VWS V14.01,2013-05-11 16:55:00,
2013-05-11 12:00:00,78.5,66.6,29.96,ENE,69,2.2,13.2,67,0.00,,---,0.21,,VWS V14.01,2013-05-11 17:00:00,
2013-05-11 12:05:00,79.4,67.9,29.96,ENE,63,2.2,11.2,68,0.00,,---,0.21,,VWS V14.01,2013-05-11 17:05:00,
2013-05-11 12:10:00,79.2,67.7,29.96,ENE,58,13.2,14.2,68,0.00,,---,0.21,,VWS V14.01,2013-05-11 17:10:00,
2013-05-11 12:15:00,78.3,66.9,29.97,NE,55,6.2,12.2,68,0.00,,---,0.21,,VWS V14.01,2013-05-11 17:15:00,
2013-05-11 12:20:00,78.6,68.0,29.97,East,85,5.2,11.2,70,0.00,,---,0.21,,VWS V14.01,2013-05-11 17:20:00,
2013-05-11 12:25:00,79.0,67.6,29.97,ENE,76,6.2,12.2,68,0.00,,---,0.21,,VWS V14.01,2013-05-11 17:25:00,
2013-05-11 12:30:00,79.4,67.1,29.97,NE,35,5.2,11.2,66,0.00,,---,0.21,,VWS V14.01,2013-05-11 17:30:00,
2013-05-11 12:35:00,79.9,67.5,29.97,NE,38,11.2,14.2,66,0.00,,---,0.21,,VWS V14.01,2013-05-11 17:35:00,
2013-05-11 12:40:00,79.6,67.7,29.97,East,90,6.2,13.2,67,0.00,,---,0.21,,VWS V14.01,2013-05-11 17:40:00,
2013-05-11 12:45:00,79.9,67.1,29.97,ENE,78,6.2,12.2,65,0.00,,---,0.21,,VWS V14.01,2013-05-11 17:45:00,
2013-05-11 12:50:00,80.1,68.6,29.96,ENE,72,8.2,13.2,68,0.00,,---,0.21,,VWS V14.01,2013-05-11 17:50:00,
2013-05-11 12:55:00,79.6,69.4,29.96,East,101,5.2,13.2,71,0.00,,---,0.21,,VWS V14.01,2013-05-11 17:55:00,
2013-05-11 13:00:00,79.6,69.8,29.96,ENE,74,7.2,12.2,72,0.00,,---,0.21,,VWS V14.01,2013-05-11 18:00:00,
2013-05-11 13:05:00,79.9,70.1,29.96,East,93,11.2,11.2,72,0.00,,---,0.21,,VWS V14.01,2013-05-11 18:05:00,
2013-05-11 13:10:00,80.5,69.8,29.96,ESE,111,7.2,13.2,70,0.00,,---,0.21,,VWS V14.01,2013-05-11 18:10:00,
2013-05-11 13:15:00,80.5,69.4,29.96,East,79,9.2,14.2,69,0.00,,---,0.21,,VWS V14.01,2013-05-11 18:15:00,
2013-05-11 13:20:00,80.9,69.8,29.96,ENE,59,7.2,12.2,69,0.00,,---,0.21,,VWS V14.01,2013-05-11 18:20:00,
2013-05-11 13:25:00,79.8,69.6,29.96,East,92,5.2,12.2,71,0.00,,---,0.21,,VWS V14.01,2013-05-11 18:25:00,
2013-05-11 13:30:00,79.8,70.0,29.96,NE,40,9.2,11.2,72,0.00,,---,0.21,,VWS V14.01,2013-05-11 18:30:00,
2013-05-11 13:35:00,80.3,70.1,29.96,ENE,69,8.2,10.2,71,0.00,,---,0.21,,VWS V14.01,2013-05-11 18:35:00,
2013-05-11 13:40:00,79.8,69.6,29.96,East,90,5.2,9.2,71,0.00,,---,0.21,,VWS V14.01,2013-05-11 18:40:00,
2013-05-11 13:45:00,79.9,69.7,29.96,East,89,4.2,10.2,71,0.00,,---,0.21,,VWS V14.01,2013-05-11 18:45:00,
2013-05-11 13:50:00,80.7,69.2,29.95,ESE,104,7.2,12.2,68,0.00,,---,0.21,,VWS V14.01,2013-05-11 18:50:00,
2013-05-11 13:55:00,81.2,69.2,29.95,ESE,115,10.2,11.2,67,0.00,,---,0.21,,VWS V14.01,2013-05-11 18:55:00,
2013-05-11 14:00:00,81.4,69.8,29.95,ENE,61,3.2,10.2,68,0.00,,---,0.21,,VWS V14.01,2013-05-11 19:00:00,
2013-05-11 14:05:00,80.9,68.9,29.95,ENE,67,8.2,12.2,67,0.00,,---,0.21,,VWS V14.01,2013-05-11 19:05:00,
2013-05-11 14:10:00,81.1,70.0,29.95,ENE,74,2.2,11.2,69,0.00,,---,0.21,,VWS V14.01,2013-05-11 19:10:00,
2013-05-11 14:15:00,81.6,69.2,29.95,East,85,6.2,11.2,66,0.00,,---,0.21,,VWS V14.01,2013-05-11 19:15:00,
2013-05-11 14:20:00,80.9,69.4,29.95,East,90,6.2,11.2,68,0.00,,---,0.21,,VWS V14.01,2013-05-11 19:20:00,
2013-05-11 14:25:00,81.4,69.8,29.95,ESE,105,9.2,11.2,68,0.00,,---,0.21,,VWS V14.01,2013-05-11 19:25:00,
2013-05-11 14:30:00,81.6,70.4,29.95,NNW,340,1.2,11.2,69,0.00,,---,0.21,,VWS V14.01,2013-05-11 19:30:00,
2013-05-11 14:35:00,81.4,69.8,29.95,East,86,7.2,14.2,68,0.00,,---,0.21,,VWS V14.01,2013-05-11 19:35:00,
2013-05-11 14:40:00,81.8,69.8,29.95,ENE,71,6.2,13.2,67,0.00,,---,0.21,,VWS V14.01,2013-05-11 19:40:00,
2013-05-11 14:45:00,81.8,69.3,29.95,East,87,6.2,12.2,66,0.00,,---,0.21,,VWS V14.01,2013-05-11 19:45:00,
2013-05-11 14:50:00,81.1,69.1,29.95,East,92,8.2,13.2,67,0.00,,---,0.21,,VWS V14.01,2013-05-11 19:50:00,
2013-05-11 14:55:00,81.2,69.2,29.95,East,90,5.2,13.2,67,0.00,,---,0.21,,VWS V14.01,2013-05-11 19:55:00,
2013-05-11 15:00:00,81.6,69.6,29.95,East,81,5.2,14.2,67,0.00,,---,0.21,,VWS V14.01,2013-05-11 20:00:00,
2013-05-11 15:05:00,81.6,69.6,29.95,ESE,102,9.2,13.2,67,0.00,,---,0.21,,VWS V14.01,2013-05-11 20:05:00,
2013-05-11 15:10:00,81.2,69.6,29.95,East,94,4.2,12.2,68,0.00,,---,0.21,,VWS V14.01,2013-05-11 20:10:00,
2013-05-11 15:15:00,80.7,70.4,29.95,East,99,7.2,14.2,71,0.00,,---,0.21,,VWS V14.01,2013-05-11 20:15:00,
2013-05-11 15:20:00,80.3,70.5,29.95,East,82,8.2,13.2,72,0.00,,---,0.21,,VWS V14.01,2013-05-11 20:20:00,
2013-05-11 15:25:00,80.1,69.4,29.95,NE,56,8.2,12.2,70,0.00,,---,0.21,,VWS V14.01,2013-05-11 20:25:00,
2013-05-11 15:30:00,80.5,70.2,29.95,ESE,102,7.2,12.2,71,0.00,,---,0.21,,VWS V14.01,2013-05-11 20:30:00,
2013-05-11 15:35:00,80.5,70.2,29.94,East,89,8.2,12.2,71,0.00,,---,0.21,,VWS V14.01,2013-05-11 20:35:00,
2013-05-11 15:40:00,80.1,69.9,29.94,East,90,5.2,14.2,71,0.00,,---,0.21,,VWS V14.01,2013-05-11 20:40:00,
2013-05-11 15:45:00,80.9,70.6,29.94,East,85,10.2,12.2,71,0.00,,---,0.21,,VWS V14.01,2013-05-11 20:45:00,
2013-05-11 15:50:00,80.7,69.6,29.93,East,96,6.2,11.2,69,0.00,,---,0.21,,VWS V14.01,2013-05-11 20:50:00,
2013-05-11 15:55:00,80.3,69.2,29.93,ENE,77,8.2,11.2,69,0.00,,---,0.21,,VWS V14.01,2013-05-11 20:55:00,
2013-05-11 16:00:00,80.3,70.1,29.93,ESE,108,9.2,11.2,71,0.00,,---,0.21,,VWS V14.01,2013-05-11 21:00:00,
2013-05-11 16:05:00,79.9,69.2,29.93,East,85,8.2,12.2,70,0.00,,---,0.21,,VWS V14.01,2013-05-11 21:05:00,
2013-05-11 16:10:00,79.9,69.7,29.93,ESE,106,7.2,10.2,71,0.00,,---,0.21,,VWS V14.01,2013-05-11 21:10:00,
2013-05-11 16:15:00,80.5,69.4,29.93,ESE,105,8.2,11.2,69,0.00,,---,0.21,,VWS V14.01,2013-05-11 21:15:00,
2013-05-11 16:20:00,80.5,69.0,29.92,ENE,74,5.2,9.2,68,0.00,,---,0.21,,VWS V14.01,2013-05-11 21:20:00,
2013-05-11 16:25:00,80.7,69.6,29.92,East,99,5.2,11.2,69,0.00,,---,0.21,,VWS V14.01,2013-05-11 21:25:00,
2013-05-11 16:30:00,81.2,69.2,29.92,East,85,7.2,11.2,67,0.00,,---,0.21,,VWS V14.01,2013-05-11 21:30:00,
2013-05-11 16:35:00,80.7,69.6,29.92,ENE,69,6.2,11.2,69,0.00,,---,0.21,,VWS V14.01,2013-05-11 21:35:00,
2013-05-11 16:40:00,80.3,69.6,29.92,ENE,69,9.2,11.2,70,0.00,,---,0.21,,VWS V14.01,2013-05-11 21:40:00,
2013-05-11 16:45:00,79.6,69.4,29.92,East,81,10.2,12.2,71,0.00,,---,0.21,,VWS V14.01,2013-05-11 21:45:00,
2013-05-11 16:50:00,79.2,69.0,29.92,East,94,11.2,14.2,71,0.00,,---,0.21,,VWS V14.01,2013-05-11 21:50:00,
2013-05-11 16:55:00,79.4,70.0,29.92,ESE,115,7.2,11.2,73,0.00,,---,0.21,,VWS V14.01,2013-05-11 21:55:00,
2013-05-11 17:00:00,79.9,69.7,29.92,ENE,61,7.2,10.2,71,0.00,,---,0.21,,VWS V14.01,2013-05-11 22:00:00,
2013-05-11 17:05:00,79.9,69.7,29.92,ENE,64,6.2,11.2,71,0.00,,---,0.21,,VWS V14.01,2013-05-11 22:05:00,
2013-05-11 17:10:00,80.3,70.1,29.92,East,89,6.2,10.2,71,0.00,,---,0.21,,VWS V14.01,2013-05-11 22:10:00,
2013-05-11 17:15:00,80.3,69.6,29.92,ENE,75,10.2,11.2,70,0.00,,---,0.21,,VWS V14.01,2013-05-11 22:15:00,
2013-05-11 17:20:00,80.1,69.9,29.91,ENE,75,8.2,11.2,71,0.00,,---,0.21,,VWS V14.01,2013-05-11 22:20:00,
2013-05-11 17:25:00,79.8,70.0,29.91,ESE,113,8.2,10.2,72,0.00,,---,0.21,,VWS V14.01,2013-05-11 22:25:00,
2013-05-11 17:30:00,79.8,70.4,29.91,ESE,108,5.2,12.2,73,0.00,,---,0.21,,VWS V14.01,2013-05-11 22:30:00,
2013-05-11 17:35:00,79.6,69.8,29.91,ENE,76,6.2,11.2,72,0.00,,---,0.21,,VWS V14.01,2013-05-11 22:35:00,
2013-05-11 17:40:00,79.6,69.4,29.91,ENE,69,4.2,10.2,71,0.00,,---,0.21,,VWS V14.01,2013-05-11 22:40:00,
2013-05-11 17:45:00,78.6,69.2,29.91,East,101,4.2,11.2,73,0.00,,---,0.21,,VWS V14.01,2013-05-11 22:45:00,
2013-05-11 17:50:00,78.5,69.5,29.91,ESE,110,8.2,10.2,74,0.00,,---,0.21,,VWS V14.01,2013-05-11 22:50:00,
2013-05-11 17:55:00,78.8,69.8,29.91,ENE,76,5.2,8.2,74,0.00,,---,0.21,,VWS V14.01,2013-05-11 22:55:00,
2013-05-11 18:00:00,79.4,70.0,29.91,ESE,105,5.2,10.2,73,0.00,,---,0.21,,VWS V14.01,2013-05-11 23:00:00,
2013-05-11 18:05:00,79.4,70.0,29.91,ESE,109,3.2,9.2,73,0.00,,---,0.21,,VWS V14.01,2013-05-11 23:05:00,
2013-05-11 18:10:00,78.8,69.8,29.91,East,97,5.2,10.2,74,0.00,,---,0.21,,VWS V14.01,2013-05-11 23:10:00,
2013-05-11 18:15:00,79.6,69.8,29.91,ESE,113,5.2,8.2,72,0.00,,---,0.21,,VWS V14.01,2013-05-11 23:15:00,
2013-05-11 18:20:00,79.6,69.0,29.91,ESE,116,5.2,10.2,70,0.00,,---,0.21,,VWS V14.01,2013-05-11 23:20:00,
2013-05-11 18:25:00,78.8,69.4,29.91,ESE,118,11.2,11.2,73,0.00,,---,0.21,,VWS V14.01,2013-05-11 23:25:00,
2013-05-11 18:30:00,78.1,69.1,29.91,ESE,112,5.2,10.2,74,0.00,,---,0.21,,VWS V14.01,2013-05-11 23:30:00,
2013-05-11 18:35:00,78.1,69.1,29.92,ESE,113,6.2,10.2,74,0.00,,---,0.21,,VWS V14.01,2013-05-11 23:35:00,
2013-05-11 18:40:00,78.1,69.5,29.92,ESE,111,7.2,11.2,75,0.00,,---,0.21,,VWS V14.01,2013-05-11 23:40:00,
2013-05-11 18:45:00,78.1,69.5,29.92,East,101,5.2,9.2,75,0.00,,---,0.21,,VWS V14.01,2013-05-11 23:45:00,
2013-05-11 18:50:00,78.5,69.9,29.92,East,96,6.2,6.2,75,0.00,,---,0.21,,VWS V14.01,2013-05-11 23:50:00,
2013-05-11 18:55:00,78.3,69.7,29.92,ESE,112,6.2,10.2,75,0.00,,---,0.21,,VWS V14.01,2013-05-11 23:55:00,
2013-05-11 19:00:00,78.8,69.8,29.92,East,93,5.2,8.2,74,0.00,,---,0.21,,VWS V14.01,2013-05-12 00:00:00,
2013-05-11 19:05:00,78.5,69.5,29.92,ESE,113,2.2,8.2,74,0.00,,---,0.21,,VWS V14.01,2013-05-12 00:05:00,
2013-05-11 19:10:00,77.7,68.8,29.92,SE,130,4.2,10.2,74,0.00,,---,0.21,,VWS V14.01,2013-05-12 00:10:00,
2013-05-11 19:15:00,77.7,69.2,29.92,ESE,117,2.2,9.2,75,0.00,,---,0.21,,VWS V14.01,2013-05-12 00:15:00,
2013-05-11 19:20:00,77.4,68.9,29.92,ESE,117,5.2,9.2,75,0.00,,---,0.21,,VWS V14.01,2013-05-12 00:20:00,
2013-05-11 19:25:00,77.0,68.5,29.92,ESE,111,7.2,9.2,75,0.00,,---,0.21,,VWS V14.01,2013-05-12 00:25:00,
2013-05-11 19:30:00,76.8,68.7,29.92,ESE,106,2.2,8.2,76,0.00,,---,0.21,,VWS V14.01,2013-05-12 00:30:00,
2013-05-11 19:35:00,76.8,68.7,29.93,East,101,3.2,7.2,76,0.00,,---,0.21,,VWS V14.01,2013-05-12 00:35:00,
2013-05-11 19:40:00,76.8,68.7,29.93,ESE,107,6.2,8.2,76,0.00,,---,0.21,,VWS V14.01,2013-05-12 00:40:00,
2013-05-11 19:45:00,77.4,69.2,29.93,ESE,106,3.2,4.2,76,0.00,,---,0.21,,VWS V14.01,2013-05-12 00:45:00,
2013-05-11 19:50:00,77.4,69.2,29.93,ESE,118,4.2,6.2,76,0.00,,---,0.21,,VWS V14.01,2013-05-12 00:50:00,
2013-05-11 19:55:00,76.7,68.6,29.93,ESE,106,3.2,6.2,76,0.00,,---,0.21,,VWS V14.01,2013-05-12 00:55:00,
2013-05-11 20:00:00,76.3,68.6,29.93,ESE,106,1.2,4.2,77,0.00,,---,0.21,,VWS V14.01,2013-05-12 01:00:00,
2013-05-11 20:05:00,76.0,68.3,29.94,ESE,106,2.2,4.2,77,0.00,,---,0.21,,VWS V14.01,2013-05-12 01:05:00,
2013-05-11 20:10:00,75.8,68.5,29.94,ESE,106,3.2,5.2,78,0.00,,---,0.21,,VWS V14.01,2013-05-12 01:10:00,
2013-05-11 20:15:00,75.6,68.3,29.94,ESE,106,2.2,4.2,78,0.00,,---,0.21,,VWS V14.01,2013-05-12 01:15:00,
2013-05-11 20:20:00,75.4,68.4,29.95,ESE,106,4.2,4.2,79,0.00,,---,0.21,,VWS V14.01,2013-05-12 01:20:00,
2013-05-11 20:25:00,75.6,68.6,29.95,ESE,103,5.2,5.2,79,0.00,,---,0.21,,VWS V14.01,2013-05-12 01:25:00,
2013-05-11 20:30:00,75.8,68.8,29.95,ESE,103,4.2,5.2,79,0.00,,---,0.21,,VWS V14.01,2013-05-12 01:30:00,
2013-05-11 20:35:00,76.0,68.7,29.95,ESE,103,1.2,5.2,78,0.00,,---,0.21,,VWS V14.01,2013-05-12 01:35:00,
2013-05-11 20:40:00,76.1,68.8,29.95,East,98,3.2,5.2,78,0.00,,---,0.21,,VWS V14.01,2013-05-12 01:40:00,
2013-05-11 20:45:00,76.3,68.9,29.95,East,98,1.2,4.2,78,0.00,,---,0.21,,VWS V14.01,2013-05-12 01:45:00,
2013-05-11 20:50:00,76.0,68.7,29.96,East,93,4.2,5.2,78,0.00,,---,0.21,,VWS V14.01,2013-05-12 01:50:00,
2013-05-11 20:55:00,75.6,68.6,29.96,East,93,2.2,3.2,79,0.00,,---,0.21,,VWS V14.01,2013-05-12 01:55:00,
2013-05-11 21:00:00,75.3,68.7,29.96,East,93,2.2,4.2,80,0.00,,---,0.21,,VWS V14.01,2013-05-12 02:00:00,
2013-05-11 21:05:00,75.1,68.5,29.97,East,88,3.2,5.2,80,0.00,,---,0.21,,VWS V14.01,2013-05-12 02:05:00,
2013-05-11 21:10:00,75.1,68.5,29.97,East,80,5.2,5.2,80,0.00,,---,0.21,,VWS V14.01,2013-05-12 02:10:00,
2013-05-11 21:15:00,75.1,68.9,29.97,ENE,59,4.2,6.2,81,0.00,,---,0.21,,VWS V14.01,2013-05-12 02:15:00,
2013-05-11 21:20:00,74.7,68.5,29.96,NE,35,3.2,8.2,81,0.00,,---,0.21,,VWS V14.01,2013-05-12 02:20:00,
2013-05-11 21:25:00,74.7,68.5,29.96,NNE,32,4.2,8.2,81,0.00,,---,0.21,,VWS V14.01,2013-05-12 02:25:00,
2013-05-11 21:30:00,74.6,68.8,29.96,NE,43,5.2,7.2,82,0.00,,---,0.21,,VWS V14.01,2013-05-12 02:30:00,
2013-05-11 21:35:00,74.4,68.9,29.97,NE,49,4.2,8.2,83,0.00,,---,0.21,,VWS V14.01,2013-05-12 02:35:00,
2013-05-11 21:40:00,74.2,68.7,29.97,NE,49,5.2,8.2,83,0.00,,---,0.21,,VWS V14.01,2013-05-12 02:40:00,
2013-05-11 21:45:00,74.4,68.9,29.97,NE,53,6.2,7.2,83,0.00,,---,0.21,,VWS V14.01,2013-05-12 02:45:00,
2013-05-11 21:50:00,74.2,68.4,29.96,NE,39,6.2,8.2,82,0.00,,---,0.21,,VWS V14.01,2013-05-12 02:50:00,
2013-05-11 21:55:00,74.2,68.4,29.96,NE,44,4.2,6.2,82,0.00,,---,0.21,,VWS V14.01,2013-05-12 02:55:00,
2013-05-11 22:00:00,74.2,68.0,29.96,NE,38,6.2,9.2,81,0.00,,---,0.21,,VWS V14.01,2013-05-12 03:00:00,
2013-05-11 22:05:00,74.4,68.2,29.97,ENE,57,4.2,7.2,81,0.00,,---,0.21,,VWS V14.01,2013-05-12 03:05:00,
2013-05-11 22:10:00,74.4,68.2,29.97,NE,46,5.2,8.2,81,0.00,,---,0.21,,VWS V14.01,2013-05-12 03:10:00,
2013-05-11 22:15:00,74.6,68.4,29.97,NE,46,4.2,6.2,81,0.00,,---,0.21,,VWS V14.01,2013-05-12 03:15:00,
2013-05-11 22:20:00,74.4,68.2,29.98,NE,46,4.2,6.2,81,0.00,,---,0.21,,VWS V14.01,2013-05-12 03:20:00,
2013-05-11 22:25:00,74.4,68.2,29.98,NE,47,7.2,7.2,81,0.00,,---,0.21,,VWS V14.01,2013-05-12 03:25:00,
2013-05-11 22:30:00,74.6,68.0,29.98,NE,55,3.2,7.2,80,0.00,,---,0.21,,VWS V14.01,2013-05-12 03:30:00,
2013-05-11 22:35:00,74.6,68.0,29.98,NE,38,2.2,7.2,80,0.00,,---,0.21,,VWS V14.01,2013-05-12 03:35:00,
2013-05-11 22:40:00,74.6,68.0,29.98,NE,34,6.2,7.2,80,0.00,,---,0.21,,VWS V14.01,2013-05-12 03:40:00,
2013-05-11 22:45:00,74.7,68.1,29.98,NE,35,2.2,6.2,80,0.00,,---,0.21,,VWS V14.01,2013-05-12 03:45:00,
2013-05-11 22:50:00,74.7,68.5,29.99,NE,35,3.2,6.2,81,0.00,,---,0.21,,VWS V14.01,2013-05-12 03:50:00,
2013-05-11 22:55:00,74.7,68.5,29.99,NE,35,4.2,6.2,81,0.00,,---,0.21,,VWS V14.01,2013-05-12 03:55:00,
2013-05-11 23:00:00,74.6,68.8,29.99,NE,38,3.2,8.2,82,0.00,,---,0.21,,VWS V14.01,2013-05-12 04:00:00,
2013-05-11 23:01:00,74.6,68.8,29.99,NE,39,3.2,8.2,82,0.00,,---,0.21,,VWS V14.01,2013-05-12 04:01:00,
2013-05-11 23:05:00,74.6,68.8,29.99,NE,39,4.2,6.2,82,0.00,,---,0.21,0.00,VWS V14.01,2013-05-12 04:05:00,
2013-05-11 23:06:00,74.6,68.8,29.99,NE,39,4.2,6.2,82,0.00,,---,0.21,,VWS V14.01,2013-05-12 04:06:00,
2013-05-11 23:10:00,74.4,68.9,29.99,NE,40,6.2,6.2,83,0.00,,---,0.21,0.00,VWS V14.01,2013-05-12 04:10:00,
2013-05-11 23:11:00,74.4,68.9,29.99,NE,40,6.2,6.2,83,0.00,,---,0.21,,VWS V14.01,2013-05-12 04:11:00,
2013-05-11 23:15:00,74.4,68.9,29.99,NE,40,1.2,7.2,83,0.00,,---,0.21,0.00,VWS V14.01,2013-05-12 04:15:00,
2013-05-11 23:16:00,74.4,68.9,29.99,NE,40,1.2,7.2,83,0.00,,---,0.21,,VWS V14.01,2013-05-12 04:16:00,
2013-05-11 23:20:00,74.4,69.2,29.99,NE,40,3.2,5.2,84,0.00,,---,0.21,0.00,VWS V14.01,2013-05-12 04:20:00,
2013-05-11 23:21:00,74.4,69.3,29.99,NE,40,3.2,5.2,84,0.00,,---,0.21,,VWS V14.01,2013-05-12 04:21:00,
2013-05-11 23:25:00,74.4,69.2,29.99,NE,40,5.2,5.2,84,0.00,,---,0.21,0.00,VWS V14.01,2013-05-12 04:25:00,
2013-05-11 23:26:00,74.4,69.3,29.99,NE,40,5.2,5.2,84,0.00,,---,0.21,,VWS V14.01,2013-05-12 04:26:00,
2013-05-11 23:30:00,74.4,69.2,30.00,NE,40,3.2,5.2,84,0.00,,---,0.21,0.00,VWS V14.01,2013-05-12 04:30:00,
2013-05-11 23:31:00,74.4,69.3,30.00,NE,40,2.2,5.2,84,0.00,,---,0.21,,VWS V14.01,2013-05-12 04:31:00,
2013-05-11 23:35:00,74.4,69.2,30.00,NE,40,4.2,6.2,84,0.00,,---,0.21,0.00,VWS V14.01,2013-05-12 04:35:00,
2013-05-11 23:36:00,74.4,69.3,30.00,NE,40,4.2,6.2,84,0.00,,---,0.21,,VWS V14.01,2013-05-12 04:36:00,
2013-05-11 23:40:00,74.4,69.2,30.00,NNE,28,3.2,7.2,84,0.00,,---,0.21,0.00,VWS V14.01,2013-05-12 04:40:00,
2013-05-11 23:41:00,74.4,69.3,30.00,NNE,28,2.2,7.2,84,0.00,,---,0.21,,VWS V14.01,2013-05-12 04:41:00,
2013-05-11 23:45:00,74.4,69.2,30.01,NNE,28,4.2,4.2,84,0.00,,---,0.21,0.00,VWS V14.01,2013-05-12 04:45:00,
2013-05-11 23:46:00,74.4,69.3,30.01,NNE,28,4.2,4.2,84,0.00,,---,0.21,,VWS V14.01,2013-05-12 04:46:00,
2013-05-11 23:50:00,74.6,69.4,30.01,NNE,28,1.2,4.2,84,0.00,,---,0.21,0.00,VWS V14.01,2013-05-12 04:50:00,
2013-05-11 23:51:00,74.6,69.4,30.01,NNE,28,1.2,4.2,84,0.00,,---,0.21,,VWS V14.01,2013-05-12 04:51:00,
2013-05-11 23:55:00,74.6,69.4,30.01,NNE,28,2.2,4.2,84,0.00,,---,0.21,0.00,VWS V14.01,2013-05-12 04:55:00,
2013-05-11 23:56:00,74.6,69.4,30.01,NNE,28,2.2,4.2,84,0.00,,---,0.21,,VWS V14.01,2013-05-12 04:56:00,